Location: Bakov nad Jizerou
(50.4784°N, 14.9394°E)
Time: 15:22:12
(UTC+00:00)

Aureole 3 - Pass Details

Date: 16 June 2021
Orbit: 382 x 1227 km, 82.5° (Epoch: 03 August)

Event Time Altitude Azimuth Distance (km) Brightness Sun altitude
Rises 22:47:38 0° 357° (N) 2,425 8.5 -16.1°
Reaches altitude 10° 22:49:37 10° 6° (N) 1,625 7.0 -16.1°
Maximum altitude 22:52:55 37° 76° (ENE) 830 4.3 -16.1°
Enters shadow 22:55:11 20° 132° (SE) 1,337 4.9 -16.1°
